Flag for Germany Weather past 2 weeks in Hückelhoven, North Rhine-Westphalia, Germany

Now
43 °F

Partly sunny.


Feels Like: 36 °F
Forecast: 36 / 42 °F
Wind: 13 mph from Southwest

Location: Geilenkirchen Airport

Current Time: Jan 28, 2015 at 10:29:25 AM

Latest Report: Jan 28, 2015 at 9:50 AM


Visibility: N/A

Pressure: 29.89 "Hg

Humidity: 76%

Dew point: 36 °F

Location of HückelhovenLocation

Historic Weather in Hückelhoven — Graph

°F

Hückelhoven temperature yesterday

Maximum temperature yesterday: 43 °F (at 12:50 PM)
Minimum temperature yesterday: 36 °F (at 2:50 AM)
Average temperature yesterday: 39 °F

Past Weeks' High & Low Weather Summary

 TemperatureHumidityPressure
High54 °F (Jan 13, 12:50 PM)100% (Jan 19, 7:50 AM)30.39 "Hg (Jan 19, 7:50 AM)
Low27 °F (Jan 19, 5:50 AM)62% (Jan 13, 10:50 AM)29.42 "Hg (Jan 15, 2:50 PM)
Average38 °F85%29.94 "Hg
* Reported Jan 13 8:50 AM — Jan 28 8:50 AM, Hückelhoven, Weather by CustomWeather, © 2014

Note: Actual official high and low records may vary slightly from our data, if they occured in-between our weather recording intervals... More about our weather records

Advertising

Hückelhoven weather history for previous 24 hours

 ConditionsComfort  
Time TempWeatherWind HumidityBarometerVisibility
8:50 AM
Jan 28
41 °FLight rain. More clouds than sun.12 mph87%29.92 "HgN/A
7:50 AM41 °FLight rain. Mostly cloudy.13 mph87%29.95 "HgN/A
6:50 AM41 °FMostly cloudy.10 mph81%29.98 "HgN/A
5:50 AM41 °FPartly cloudy.9 mph87%30.01 "HgN/A
4:50 AM41 °FPartly cloudy.7 mph87%30.04 "Hg6 mi
3:50 AM39 °FLight rain. Partly cloudy.7 mph93%30.09 "Hg4 mi
2:50 AM39 °FPartly cloudy.7 mph93%30.12 "Hg4 mi
1:50 AM39 °FPartly cloudy.7 mph93%30.15 "Hg5 mi
12:50 AM39 °FPartly cloudy.7 mph87%30.18 "Hg6 mi
11:50 PM
Jan 27
39 °FPassing clouds.6 mph87%30.18 "Hg6 mi
10:50 PM39 °FPassing clouds.7 mph87%30.21 "HgN/A
9:50 PM39 °FPartly cloudy.5 mph93%30.21 "HgN/A
8:50 PM41 °FPartly cloudy.6 mph87%30.21 "HgN/A
7:50 PM41 °FPassing clouds.9 mph87%30.21 "HgN/A
6:50 PM41 °FPassing clouds.9 mph87%30.21 "HgN/A
5:50 PM41 °FPartly cloudy.12 mph87%30.21 "HgN/A
4:50 PM41 °FBroken clouds.12 mph87%30.21 "HgN/A
3:50 PM43 °FBroken clouds.12 mph87%30.21 "HgN/A
2:50 PM43 °FBroken clouds.14 mph87%30.21 "HgN/A
1:50 PM41 °FBroken clouds.12 mph93%30.21 "HgN/A
12:50 PM43 °FBroken clouds.13 mph87%30.24 "HgN/A
11:50 AM41 °FBroken clouds.12 mph93%30.24 "HgN/A
10:50 AM39 °FBroken clouds.13 mph93%30.24 "HgN/A
Weather by CustomWeather, © 2014

See weather overviewHow to use our weather pages